This is the latest recevied weather packets stored in our database for station/object IW7DVM-13. If no packets are shown the sender has not sent any weather packets the latest 10 day(s).
| Time | Temp. | Humidity | Pressure | Rain* | Wind** | Luminosity | Snow |
|---|---|---|---|---|---|---|---|
| 1787660403 | 31.11° C | 62% | 1007.3 hPa | 0 mm | - | - | - |
| 1787660103 | 31.11° C | 61% | 1007.2 hPa | 0 mm | - | - | - |
| 1787659803 | 31.67° C | 61% | 1007.3 hPa | 0 mm | - | - | - |
| 1787659503 | 31.11° C | 61% | 1007.6 hPa | 0 mm | - | - | - |
| 1787659203 | 31.11° C | 61% | 1007.5 hPa | 0 mm | - | - | - |
| 1787658903 | 31.67° C | 60% | 1007.5 hPa | 0 mm | - | - | - |
| 1787658603 | 31.67° C | 58% | 1007.4 hPa | 0 mm | - | - | - |
| 1787658303 | 32.22° C | 58% | 1007.2 hPa | 0 mm | - | - | - |
| 1787658004 | 32.22° C | 58% | 1007.3 hPa | 0 mm | - | - | - |
| 1787657703 | 31.67° C | 59% | 1007.3 hPa | 0 mm | - | - | - |
| 1787657403 | 31.67° C | 59% | 1007.4 hPa | 0 mm | - | - | - |
| 1787657103 | 31.67° C | 59% | 1007.5 hPa | 0 mm | - | - | - |
| 1787656803 | 31.67° C | 58% | 1007.6 hPa | 0 mm | - | - | - |
| 1787656503 | 31.67° C | 58% | 1007.6 hPa | 0 mm | - | - | - |
| 1787656203 | 31.67° C | 57% | 1007.7 hPa | 0 mm | - | - | - |
| 1787655903 | 31.67° C | 58% | 1007.9 hPa | 0 mm | - | - | - |
| 1787655604 | 31.67° C | 58% | 1007.7 hPa | 0 mm | - | - | - |
| 1787655303 | 31.67° C | 58% | 1007.7 hPa | 0 mm | - | - | - |
| 1787655003 | 31.67° C | 58% | 1008 hPa | 0 mm | - | - | - |
| 1787654703 | 31.11° C | 59% | 1008.3 hPa | 0 mm | - | - | - |
| 1787654403 | 30.56° C | 60% | 1008.5 hPa | 0 mm | - | - | - |
| 1787654103 | 31.11° C | 59% | 1008.6 hPa | 0 mm | - | - | - |
| 1787653803 | 30.56° C | 60% | 1008.6 hPa | 0 mm | - | - | - |
| 1787653503 | 31.11° C | 59% | 1008.7 hPa | 0 mm | - | - | - |
| 1787653203 | 31.11° C | 59% | 1008.9 hPa | 0 mm | - | - | - |
* Rain latest hour (hover to see other rain measurements)
** Current wind speed in m/s (hover to see current wind gust speed)